| time (UTC) | temp F | wind direction | speed MPH | gust MPH | rain 1hr in | rain 24hr in | rain mn in | humidity % | barometer mb |
| 20260508040552 | 43 | 157 | 4.0 | 11.0 | 0.00 | 0.00 | 0.00 | 96 | 1007.0 |
| 20260508040055 | 43 | 202 | 2.0 | 16.0 | 0.00 | 0.00 | 0.00 | 96 | 1007.3 |
| 20260508035552 | 43 | 196 | 7.0 | 16.0 | 0.00 | 0.00 | 0.00 | 96 | 1007.3 |
| 20260508035051 | 43 | 150 | 7.0 | 14.0 | 0.00 | 0.00 | 0.00 | 96 | 1007.2 |
| 20260508034552 | 43 | 227 | 8.0 | 14.0 | 0.00 | 0.00 | 0.00 | 96 | 1007.2 |
| 20260508034050 | 43 | 248 | 5.0 | 14.0 | 0.00 | 0.00 | 0.00 | 96 | 1007.2 |
| 20260508033549 | 43 | 255 | 4.0 | 15.0 | 0.00 | 0.00 | 0.00 | 96 | 1007.6 |
| 20260508032550 | 43 | 217 | 5.0 | 11.0 | 0.00 | 0.00 | 0.00 | 96 | 1007.6 |
| 20260508032049 | 43 | 222 | 5.0 | 11.0 | 0.00 | 0.00 | 0.00 | 96 | 1007.7 |
| 20260508031547 | 43 | 182 | 4.0 | 13.0 | 0.00 | 0.00 | 0.00 | 96 | 1008.0 |
| 20260508031046 | 43 | 187 | 4.0 | 13.0 | 0.00 | 0.00 | 0.00 | 96 | 1008.1 |
| 20260508030545 | 43 | 264 | 2.0 | 11.0 | 0.00 | 0.00 | 0.00 | 96 | 1008.1 |
| 20260508030045 | 43 | 271 | 2.0 | 19.0 | 0.00 | 0.00 | 0.00 | 96 | 1008.2 |
| 20260508025546 | 43 | 249 | 6.0 | 19.0 | 0.00 | 0.00 | 0.00 | 96 | 1008.3 |
| 20260508025043 | 43 | 185 | 6.0 | 15.0 | 0.00 | 0.00 | 0.00 | 96 | 1008.4 |
| 20260508024548 | 43 | 214 | 7.0 | 15.0 | 0.00 | 0.00 | 0.00 | 96 | 1008.6 |
| 20260508024041 | 43 | 186 | 7.0 | 15.0 | 0.00 | 0.00 | 0.00 | 96 | 1008.7 |
| 20260508023541 | 44 | 228 | 5.0 | 12.0 | 0.00 | 0.00 | 0.00 | 96 | 1008.7 |
| 20260508022539 | 44 | 181 | 2.0 | 11.0 | 0.00 | 0.00 | 0.00 | 96 | 1009.1 |
| 20260508022038 | 44 | 158 | 3.0 | 10.0 | 0.00 | 0.00 | 0.00 | 96 | 1009.3 |
| 20260508021537 | 44 | 250 | 2.0 | 11.0 | 0.00 | 0.00 | 0.00 | 96 | 1009.4 |
| 20260508021037 | 44 | 255 | 3.0 | 11.0 | 0.00 | 0.00 | 0.00 | 96 | 1009.7 |
| 20260508020537 | 44 | 253 | 4.0 | 8.0 | 0.00 | 0.00 | 0.00 | 96 | 1009.7 |
| 20260508020036 | 44 | 224 | 4.0 | 9.0 | 0.00 | 0.00 | 0.00 | 96 | 1009.6 |
| 20260508015537 | 44 | 228 | 4.0 | 9.0 | 0.00 | 0.00 | 0.00 | 96 | 1009.6 |
| 20260508015036 | 44 | 236 | 1.0 | 15.0 | 0.00 | 0.00 | 0.00 | 96 | 1009.5 |
| 20260508014541 | 44 | 121 | 2.0 | 15.0 | 0.00 | 0.00 | 0.00 | 96 | 1009.8 |
| 20260508014036 | 43 | 230 | 2.0 | 14.0 | 0.00 | 0.00 | 0.00 | 95 | 1010.0 |
| 20260508013535 | 43 | 164 | 3.0 | 14.0 | 0.00 | 0.00 | 0.00 | 95 | 1010.0 |
| 20260508012534 | 44 | 103 | 4.0 | 11.0 | 0.00 | 0.00 | 0.00 | 95 | 1010.1 |
| 20260508012032 | 44 | 130 | 5.0 | 11.0 | 0.00 | 0.00 | 0.00 | 95 | 1010.1 |
| 20260508011530 | 44 | 137 | 5.0 | 16.0 | 0.00 | 0.00 | 0.00 | 95 | 1010.3 |
| 20260508011029 | 44 | 59 | 5.0 | 16.0 | 0.00 | 0.00 | 0.00 | 95 | 1010.6 |
| 20260508010530 | 44 | 171 | 5.0 | 15.0 | 0.00 | 0.00 | 0.00 | 95 | 1010.6 |
| 20260508010034 | 44 | 118 | 5.0 | 15.0 | 0.00 | 0.00 | 0.00 | 95 | 1010.6 |
| 20260508005528 | 44 | 82 | 6.0 | 14.0 | 0.00 | 0.00 | 0.00 | 95 | 1010.6 |
| 20260508005027 | 44 | 122 | 6.0 | 14.0 | 0.00 | 0.00 | 0.00 | 95 | 1010.7 |
| 20260508004627 | 44 | 162 | 4.0 | 13.0 | 0.00 | 0.00 | 0.00 | 95 | 1010.9 |
| 20260508004028 | 44 | 193 | 6.0 | 13.0 | 0.00 | 0.00 | 0.00 | 95 | 1010.9 |
| 20260508003524 | 45 | 155 | 6.0 | 16.0 | 0.00 | 0.00 | 0.00 | 95 | 1011.1 |
| 20260508002525 | 45 | 152 | 4.0 | 21.0 | 0.00 | 0.00 | 0.00 | 95 | 1011.3 |
| 20260508002023 | 45 | 155 | 7.0 | 21.0 | 0.00 | 0.00 | 0.00 | 95 | 1011.2 |
| 20260508001522 | 45 | 141 | 6.0 | 13.0 | 0.00 | 0.00 | 0.00 | 95 | 1011.3 |
| 20260508001023 | 45 | 133 | 4.0 | 18.0 | 0.00 | 0.00 | 0.00 | 95 | 1011.2 |
| 20260508000523 | 45 | 44 | 4.0 | 12.0 | 0.00 | 0.00 | 0.00 | 95 | 1011.4 |
| 20260508000021 | 45 | 149 | 3.0 | 11.0 | 0.00 | 0.00 | 0.00 | 95 | 1011.5 |
| 20260507235521 | 45 | 132 | 4.0 | 14.0 | 0.00 | 0.00 | 0.00 | 95 | 1011.7 |
| 20260507235021 | 45 | 177 | 5.0 | 15.0 | 0.00 | 0.00 | 0.00 | 95 | 1011.8 |
| 20260507234621 | 45 | 125 | 6.0 | 15.0 | 0.00 | 0.00 | 0.00 | 95 | 1011.6 |
| 20260507234021 | 45 | 76 | 6.0 | 15.0 | 0.00 | 0.00 | 0.00 | 95 | 1011.8 |
| 20260507233519 | 45 | 147 | 3.0 | 10.0 | 0.00 | 0.00 | 0.00 | 95 | 1011.8 |
| 20260507232519 | 46 | 207 | 4.0 | 15.0 | 0.00 | 0.00 | 0.00 | 95 | 1012.1 |
| 20260507232020 | 46 | 149 | 3.0 | 10.0 | 0.00 | 0.00 | 0.00 | 95 | 1012.2 |
| 20260507231527 | 45 | 4 | 1.0 | 10.0 | 0.00 | 0.00 | 0.00 | 95 | 1012.1 |
| 20260507231020 | 45 | 70 | 4.0 | 11.0 | 0.00 | 0.00 | 0.00 | 95 | 1012.0 |
| 20260507230519 | 45 | 185 | 6.0 | 14.0 | 0.00 | 0.00 | 0.00 | 95 | 1012.0 |
| 20260507230018 | 46 | 114 | 6.0 | 14.0 | 0.00 | 0.00 | 0.00 | 95 | 1012.0 |
| 20260507225518 | 46 | 141 | 5.0 | 14.0 | 0.00 | 0.00 | 0.00 | 95 | 1012.1 |
| 20260507225018 | 46 | 170 | 4.0 | 13.0 | 0.00 | 0.00 | 0.00 | 95 | 1012.1 |
| 20260507224518 | 46 | 101 | 6.0 | 15.0 | 0.00 | 0.00 | 0.00 | 95 | 1012.0 |
| 20260507224016 | 46 | 144 | 6.0 | 15.0 | 0.00 | 0.00 | 0.00 | 95 | 1012.1 |
| 20260507223517 | 46 | 88 | 5.0 | 16.0 | 0.00 | 0.00 | 0.00 | 95 | 1012.2 |
| 20260507222516 | 45 | 192 | 5.0 | 11.0 | 0.00 | 0.00 | 0.00 | 95 | 1012.3 |
| 20260507222015 | 44 | 39 | 5.0 | 11.0 | 0.00 | 0.00 | 0.00 | 95 | 1012.2 |
| 20260507221515 | 44 | 83 | 3.0 | 10.0 | 0.00 | 0.00 | 0.00 | 95 | 1012.1 |
| 20260507221016 | 44 | 64 | 4.0 | 14.0 | 0.00 | 0.00 | 0.00 | 94 | 1012.2 |
| 20260507220514 | 44 | 73 | 6.0 | 14.0 | 0.00 | 0.00 | 0.00 | 94 | 1012.2 |
| 20260507220018 | 44 | 94 | 6.0 | 13.0 | 0.00 | 0.00 | 0.00 | 94 | 1012.4 |
| 20260507215512 | 45 | 155 | 4.0 | 11.0 | 0.00 | 0.00 | 0.00 | 95 | 1012.6 |
| 20260507215011 | 45 | 145 | 4.0 | 10.0 | 0.00 | 0.00 | 0.00 | 94 | 1012.8 |
| 20260507214510 | 44 | 162 | 4.0 | 10.0 | 0.00 | 0.00 | 0.00 | 94 | 1012.8 |
| 20260507214010 | 44 | 82 | 3.0 | 11.0 | 0.00 | 0.00 | 0.00 | 94 | 1012.9 |
| 20260507213509 | 44 | 70 | 2.0 | 10.0 | 0.00 | 0.00 | 0.00 | 94 | 1013.0 |
| 20260507212508 | 44 | 135 | 4.0 | 12.0 | 0.00 | 0.00 | 0.00 | 94 | 1013.1 |
| 20260507212007 | 44 | 192 | 6.0 | 12.0 | 0.00 | 0.00 | 0.00 | 94 | 1013.5 |
| 20260507211508 | 44 | 101 | 4.0 | 10.0 | 0.00 | 0.00 | 0.00 | 94 | 1013.4 |
| 20260507211008 | 44 | 190 | 4.0 | 10.0 | 0.00 | 0.00 | 0.00 | 94 | 1013.7 |
| 20260507210504 | 44 | 167 | 3.0 | 11.0 | 0.00 | 0.00 | 0.00 | 94 | 1013.5 |
| 20260507210004 | 44 | 120 | 3.0 | 10.0 | 0.00 | 0.00 | 0.00 | 93 | 1013.5 |
| 20260507205503 | 44 | 96 | 4.0 | 10.0 | 0.00 | 0.00 | 0.00 | 93 | 1013.7 |
| 20260507205001 | 44 | 183 | 3.0 | 9.0 | 0.00 | 0.00 | 0.00 | 93 | 1013.9 |
| 20260507204500 | 44 | 133 | 5.0 | 18.0 | 0.00 | 0.00 | 0.00 | 93 | 1014.0 |
| 20260507204104 | 44 | 140 | 5.0 | 18.0 | 0.00 | 0.00 | 0.00 | 92 | 1014.2 |
| 20260507203559 | 44 | 165 | 4.0 | 9.0 | 0.00 | 0.00 | 0.00 | 92 | 1014.0 |
| 20260507202557 | 45 | 170 | 3.0 | 14.0 | 0.00 | 0.00 | 0.00 | 92 | 1014.2 |
| 20260507202057 | 45 | 137 | 3.0 | 10.0 | 0.00 | 0.00 | 0.00 | 91 | 1014.3 |
| 20260507201600 | 45 | 151 | 3.0 | 13.0 | 0.00 | 0.00 | 0.00 | 91 | 1014.3 |
| 20260507201055 | 45 | 234 | 4.0 | 9.0 | 0.00 | 0.00 | 0.00 | 91 | 1014.5 |
| 20260507200554 | 46 | 150 | 4.0 | 8.0 | 0.00 | 0.00 | 0.00 | 91 | 1014.4 |
| 20260507200107 | 46 | 40 | 3.0 | 11.0 | 0.00 | 0.00 | 0.00 | 91 | 1014.4 |
| 20260507195551 | 46 | 133 | 5.0 | 11.0 | 0.00 | 0.00 | 0.00 | 90 | 1014.7 |
| 20260507195051 | 46 | 168 | 6.0 | 14.0 | 0.00 | 0.00 | 0.00 | 90 | 1014.7 |
| 20260507194550 | 47 | 169 | 4.0 | 12.0 | 0.00 | 0.00 | 0.00 | 89 | 1014.6 |
| 20260507194048 | 47 | 126 | 4.0 | 10.0 | 0.00 | 0.00 | 0.00 | 88 | 1014.7 |
| 20260507193547 | 48 | 100 | 5.0 | 10.0 | 0.00 | 0.00 | 0.00 | 87 | 1014.8 |
| 20260507192546 | 51 | 70 | 6.0 | 13.0 | 0.00 | 0.00 | 0.00 | 86 | 1015.1 |
| 20260507192045 | 52 | 121 | 5.0 | 15.0 | 0.00 | 0.00 | 0.00 | 87 | 1015.1 |
| 20260507191544 | 53 | 81 | 6.0 | 15.0 | 0.00 | 0.00 | 0.00 | 87 | 1015.4 |
| 20260507191043 | 53 | 81 | 5.0 | 14.0 | 0.00 | 0.00 | 0.00 | 87 | 1015.6 |
| 20260507190546 | 54 | 151 | 3.0 | 12.0 | 0.00 | 0.00 | 0.00 | 86 | 1015.8 |
| 20260507190047 | 55 | 51 | 4.0 | 22.0 | 0.00 | 0.00 | 0.00 | 86 | 1015.7 |
| 20260507185546 | 55 | 89 | 6.0 | 14.0 | 0.00 | 0.00 | 0.00 | 86 | 1015.7 |
| 20260507185041 | 55 | 128 | 4.0 | 14.0 | 0.00 | 0.00 | 0.00 | 85 | 1015.9 |
| 20260507184547 | 55 | 117 | 4.0 | 10.0 | 0.00 | 0.00 | 0.00 | 85 | 1016.1 |
| 20260507184041 | 55 | 189 | 2.0 | 18.0 | 0.00 | 0.00 | 0.00 | 85 | 1016.2 |
| 20260507183540 | 55 | 126 | 3.0 | 7.0 | 0.00 | 0.00 | 0.00 | 85 | 1016.3 |
| 20260507182540 | 55 | 196 | 4.0 | 12.0 | 0.00 | 0.00 | 0.00 | 85 | 1016.4 |
| 20260507182042 | 55 | 148 | 5.0 | 13.0 | 0.00 | 0.00 | 0.00 | 84 | 1016.4 |
| 20260507181539 | 55 | 212 | 6.0 | 15.0 | 0.00 | 0.00 | 0.00 | 85 | 1016.5 |
| 20260507181039 | 55 | 141 | 3.0 | 12.0 | 0.00 | 0.00 | 0.00 | 85 | 1016.6 |
| 20260507180544 | 55 | 103 | 5.0 | 12.0 | 0.00 | 0.00 | 0.00 | 86 | 1016.6 |
| 20260507180045 | 54 | 149 | 5.0 | 12.0 | 0.00 | 0.00 | 0.00 | 86 | 1016.6 |
| 20260507175542 | 54 | 97 | 7.0 | 16.0 | 0.00 | 0.00 | 0.00 | 85 | 1016.7 |
| 20260507175039 | 55 | 233 | 6.0 | 19.0 | 0.00 | 0.00 | 0.00 | 85 | 1016.6 |
| 20260507174539 | 55 | 119 | 5.0 | 19.0 | 0.00 | 0.00 | 0.00 | 85 | 1016.6 |
| 20260507174037 | 56 | 73 | 7.0 | 24.0 | 0.00 | 0.00 | 0.00 | 84 | 1016.8 |
| 20260507173537 | 56 | 191 | 7.0 | 15.0 | 0.00 | 0.00 | 0.00 | 83 | 1016.9 |
| 20260507172538 | 57 | 151 | 8.0 | 16.0 | 0.00 | 0.00 | 0.00 | 83 | 1017.0 |
| 20260507172036 | 57 | 116 | 5.0 | 16.0 | 0.00 | 0.00 | 0.00 | 81 | 1017.0 |
| 20260507171535 | 57 | 231 | 6.0 | 13.0 | 0.00 | 0.00 | 0.00 | 83 | 1017.1 |
| 20260507171034 | 57 | 133 | 4.0 | 10.0 | 0.00 | 0.00 | 0.00 | 84 | 1017.3 |
| 20260507170535 | 56 | 177 | 5.0 | 10.0 | 0.00 | 0.00 | 0.00 | 82 | 1017.4 |
| 20260507170036 | 57 | 75 | 4.0 | 9.0 | 0.00 | 0.00 | 0.00 | 80 | 1017.6 |
| 20260507165532 | 57 | 65 | 4.0 | 13.0 | 0.00 | 0.00 | 0.00 | 82 | 1017.5 |
| 20260507165034 | 56 | 122 | 4.0 | 13.0 | 0.00 | 0.00 | 0.00 | 82 | 1017.6 |
| 20260507164540 | 55 | 148 | 4.0 | 13.0 | 0.00 | 0.00 | 0.00 | 82 | 1017.6 |
| 20260507164031 | 55 | 181 | 3.0 | 13.0 | 0.00 | 0.00 | 0.00 | 85 | 1017.7 |
| 20260507163531 | 53 | 199 | 4.0 | 10.0 | 0.00 | 0.00 | 0.00 | 87 | 1017.8 |
| 20260507162531 | 50 | 135 | 3.0 | 10.0 | 0.00 | 0.00 | 0.00 | 83 | 1018.1 |
| 20260507162029 | 50 | 169 | 3.0 | 10.0 | 0.00 | 0.00 | 0.00 | 82 | 1018.1 |
| 20260507161528 | 51 | 122 | 4.0 | 10.0 | 0.00 | 0.00 | 0.00 | 81 | 1018.1 |
| 20260507161028 | 52 | 139 | 3.0 | 12.0 | 0.00 | 0.00 | 0.00 | 79 | 1018.0 |
| 20260507160527 | 54 | 98 | 5.0 | 12.0 | 0.00 | 0.00 | 0.00 | 76 | 1018.1 |
| 20260507160027 | 55 | 91 | 2.0 | 10.0 | 0.00 | 0.00 | 0.00 | 77 | 1018.0 |
| 20260507155526 | 56 | 137 | 4.0 | 10.0 | 0.00 | 0.00 | 0.00 | 76 | 1018.2 |
| 20260507155026 | 56 | 65 | 4.0 | 12.0 | 0.00 | 0.00 | 0.00 | 77 | 1018.2 |
| 20260507154525 | 57 | 161 | 6.0 | 11.0 | 0.00 | 0.00 | 0.00 | 78 | 1018.4 |
| 20260507154025 | 55 | 64 | 3.0 | 14.0 | 0.00 | 0.00 | 0.00 | 79 | 1018.5 |
| 20260507153523 | 55 | 149 | 5.0 | 9.0 | 0.00 | 0.00 | 0.00 | 79 | 1018.6 |
| 20260507152522 | 54 | 147 | 5.0 | 9.0 | 0.00 | 0.00 | 0.00 | 76 | 1018.8 |
| 20260507152022 | 55 | 191 | 4.0 | 10.0 | 0.00 | 0.00 | 0.00 | 77 | 1018.9 |
| 20260507151522 | 55 | 108 | 3.0 | 10.0 | 0.00 | 0.00 | 0.00 | 75 | 1019.0 |
| 20260507151020 | 56 | 139 | 2.0 | 10.0 | 0.00 | 0.00 | 0.00 | 74 | 1019.1 |
| 20260507150520 | 57 | 145 | 5.0 | 10.0 | 0.00 | 0.00 | 0.00 | 74 | 1019.1 |
| 20260507150025 | 58 | 103 | 3.0 | 14.0 | 0.00 | 0.00 | 0.00 | 73 | 1019.3 |
| 20260507145521 | 59 | 117 | 5.0 | 14.0 | 0.00 | 0.00 | 0.00 | 73 | 1019.2 |
| 20260507145018 | 60 | 186 | 5.0 | 12.0 | 0.00 | 0.00 | 0.00 | 74 | 1019.2 |
| 20260507144524 | 60 | 155 | 5.0 | 12.0 | 0.00 | 0.00 | 0.00 | 75 | 1019.3 |
| 20260507144018 | 60 | 151 | 5.0 | 14.0 | 0.00 | 0.00 | 0.00 | 75 | 1019.4 |
| 20260507143518 | 60 | 94 | 7.0 | 14.0 | 0.00 | 0.00 | 0.00 | 76 | 1019.3 |
| 20260507142519 | 60 | 110 | 5.0 | 14.0 | 0.00 | 0.00 | 0.00 | 75 | 1019.3 |
| 20260507142018 | 60 | 179 | 5.0 | 14.0 | 0.00 | 0.00 | 0.00 | 75 | 1019.3 |
| 20260507141518 | 59 | 4 | 4.0 | 12.0 | 0.00 | 0.00 | 0.00 | 76 | 1019.4 |
| 20260507141018 | 59 | 148 | 4.0 | 11.0 | 0.00 | 0.00 | 0.00 | 77 | 1019.4 |
| 20260507140517 | 59 | 155 | 4.0 | 14.0 | 0.00 | 0.00 | 0.00 | 76 | 1019.4 |
| 20260507140018 | 59 | 130 | 2.0 | 14.0 | 0.00 | 0.00 | 0.00 | 76 | 1019.3 |
| 20260507135517 | 60 | 160 | 3.0 | 10.0 | 0.00 | 0.00 | 0.00 | 75 | 1019.3 |
| 20260507135017 | 60 | 174 | 5.0 | 10.0 | 0.00 | 0.00 | 0.00 | 78 | 1019.3 |
| 20260507134517 | 60 | 180 | 5.0 | 11.0 | 0.00 | 0.00 | 0.00 | 79 | 1019.4 |
| 20260507134016 | 59 | 173 | 7.0 | 11.0 | 0.00 | 0.00 | 0.00 | 80 | 1019.5 |
| 20260507133516 | 57 | 120 | 5.0 | 10.0 | 0.00 | 0.00 | 0.00 | 82 | 1019.4 |
| 20260507132517 | 58 | 117 | 4.0 | 11.0 | 0.00 | 0.00 | 0.00 | 78 | 1019.5 |
| 20260507132016 | 59 | 224 | 5.0 | 10.0 | 0.00 | 0.00 | 0.00 | 77 | 1019.6 |
| 20260507131517 | 59 | 176 | 4.0 | 8.0 | 0.00 | 0.00 | 0.00 | 78 | 1019.4 |
| 20260507131015 | 59 | 130 | 4.0 | 9.0 | 0.00 | 0.00 | 0.00 | 80 | 1019.4 |
| 20260507130517 | 59 | 198 | 4.0 | 10.0 | 0.00 | 0.00 | 0.00 | 81 | 1019.5 |
| 20260507130015 | 58 | 136 | 4.0 | 10.0 | 0.00 | 0.00 | 0.00 | 83 | 1019.5 |
| 20260507125515 | 57 | 104 | 5.0 | 10.0 | 0.00 | 0.00 | 0.00 | 82 | 1019.6 |
| 20260507125014 | 57 | 151 | 4.0 | 11.0 | 0.00 | 0.00 | 0.00 | 80 | 1019.6 |
| 20260507124520 | 58 | 107 | 4.0 | 11.0 | 0.00 | 0.00 | 0.00 | 77 | 1019.7 |
| 20260507124015 | 61 | 101 | 4.0 | 7.0 | 0.00 | 0.00 | 0.00 | 75 | 1019.7 |
| 20260507123515 | 61 | 137 | 2.0 | 8.0 | 0.00 | 0.00 | 0.00 | 78 | 1019.5 |
| 20260507122513 | 59 | 101 | 1.0 | 7.0 | 0.00 | 0.00 | 0.00 | 81 | 1019.4 |
| 20260507122011 | 58 | 83 | 2.0 | 7.0 | 0.00 | 0.00 | 0.00 | 80 | 1019.4 |
| 20260507121508 | 58 | 64 | 2.0 | 6.0 | 0.00 | 0.00 | 0.00 | 78 | 1019.4 |
| 20260507121008 | 58 | 106 | 1.0 | 5.0 | 0.00 | 0.00 | 0.00 | 80 | 1019.4 |
| 20260507120506 | 58 | 56 | 2.0 | 7.0 | 0.00 | 0.00 | 0.00 | 80 | 1019.5 |
| 20260507120007 | 57 | 58 | 2.0 | 7.0 | 0.00 | 0.00 | 0.00 | 81 | 1019.5 |
| 20260507115505 | 57 | 54 | 2.0 | 7.0 | 0.00 | 0.00 | 0.00 | 80 | 1019.6 |
| 20260507115008 | 57 | 70 | 1.0 | 5.0 | 0.00 | 0.00 | 0.00 | 80 | 1019.7 |
| 20260507114506 | 57 | 102 | 2.0 | 5.0 | 0.00 | 0.00 | 0.00 | 81 | 1019.6 |
| 20260507114004 | 56 | 145 | 1.0 | 5.0 | 0.00 | 0.00 | 0.00 | 81 | 1019.6 |
| 20260507113503 | 56 | 110 | 1.0 | 6.0 | 0.00 | 0.00 | 0.00 | 81 | 1019.7 |
| 20260507112507 | 55 | 104 | 1.0 | 5.0 | 0.00 | 0.00 | 0.00 | 82 | 1019.7 |
| 20260507112004 | 55 | 137 | 1.0 | 5.0 | 0.00 | 0.00 | 0.00 | 81 | 1019.8 |
| 20260507111506 | 55 | 165 | 0.0 | 6.0 | 0.00 | 0.00 | 0.00 | 81 | 1019.8 |
| 20260507111003 | 56 | 163 | 1.0 | 6.0 | 0.00 | 0.00 | 0.00 | 80 | 1019.8 |
| 20260507110504 | 56 | 149 | 2.0 | 5.0 | 0.00 | 0.00 | 0.00 | 79 | 1019.8 |
| 20260507110004 | 57 | 178 | 2.0 | 5.0 | 0.00 | 0.00 | 0.00 | 80 | 1019.8 |
| 20260507105502 | 57 | 203 | 0.0 | 2.0 | 0.00 | 0.00 | 0.00 | 84 | 1019.8 |
| 20260507105005 | 56 | 203 | 1.0 | 5.0 | 0.00 | 0.00 | 0.00 | 85 | 1019.8 |
| 20260507104502 | 56 | 203 | 1.0 | 5.0 | 0.00 | 0.00 | 0.00 | 86 | 1019.9 |
| 20260507104100 | 56 | 250 | 2.0 | 6.0 | 0.00 | 0.00 | 0.00 | 86 | 1019.9 |
| 20260507103559 | 56 | 220 | 2.0 | 6.0 | 0.00 | 0.00 | 0.00 | 86 | 1019.9 |
| 20260507103158 | 56 | 203 | 1.0 | 5.0 | 0.00 | 0.00 | 0.00 | 86 | 1019.9 |
| 20260507102556 | 55 | 164 | 0.0 | 4.0 | 0.00 | 0.00 | 0.00 | 86 | 1019.9 |
| 20260507102058 | 55 | 173 | 1.0 | 5.0 | 0.00 | 0.00 | 0.00 | 87 | 1020.0 |
| 20260507101603 | 55 | 245 | 0.0 | 4.0 | 0.00 | 0.00 | 0.00 | 90 | 1020.0 |
| 20260507101058 | 54 | 259 | 0.0 | 7.0 | 0.00 | 0.00 | 0.00 | 90 | 1020.0 |
| 20260507100556 | 54 | 252 | 3.0 | 7.0 | 0.00 | 0.00 | 0.00 | 90 | 1020.0 |
| 20260507095555 | 53 | 166 | 2.0 | 9.0 | 0.00 | 0.00 | 0.00 | 91 | 1020.0 |
| 20260507095055 | 53 | 261 | 4.0 | 9.0 | 0.00 | 0.00 | 0.00 | 91 | 1020.0 |
| 20260507094601 | 52 | 249 | 4.0 | 9.0 | 0.00 | 0.00 | 0.00 | 91 | 1020.0 |
| 20260507094056 | 52 | 246 | 2.0 | 10.0 | 0.00 | 0.00 | 0.00 | 91 | 1020.1 |
| 20260507093554 | 52 | 284 | 5.0 | 9.0 | 0.00 | 0.00 | 0.00 | 91 | 1020.1 |
| 20260507093156 | 52 | 246 | 3.0 | 9.0 | 0.00 | 0.00 | 0.00 | 91 | 1020.1 |
| 20260507092555 | 52 | 254 | 4.0 | 9.0 | 0.00 | 0.00 | 0.00 | 91 | 1020.1 |
| 20260507092058 | 52 | 255 | 4.0 | 8.0 | 0.00 | 0.00 | 0.00 | 91 | 1020.2 |
| 20260507091554 | 52 | 274 | 4.0 | 9.0 | 0.00 | 0.00 | 0.00 | 91 | 1020.2 |
| 20260507091054 | 52 | 251 | 4.0 | 9.0 | 0.00 | 0.00 | 0.00 | 91 | 1020.3 |
| 20260507090553 | 52 | 240 | 2.0 | 7.0 | 0.00 | 0.00 | 0.00 | 91 | 1020.3 |
| 20260507090059 | 52 | 272 | 3.0 | 9.0 | 0.00 | 0.00 | 0.00 | 91 | 1020.3 |
| 20260507085553 | 51 | 263 | 4.0 | 9.0 | 0.00 | 0.00 | 0.00 | 91 | 1020.2 |
| 20260507085052 | 51 | 270 | 4.0 | 8.0 | 0.00 | 0.00 | 0.00 | 91 | 1020.1 |
| 20260507084558 | 51 | 219 | 3.0 | 9.0 | 0.00 | 0.00 | 0.00 | 91 | 1020.1 |
| 20260507084055 | 51 | 278 | 3.0 | 9.0 | 0.00 | 0.00 | 0.00 | 91 | 1020.1 |
| 20260507083553 | 51 | 222 | 4.0 | 8.0 | 0.00 | 0.00 | 0.00 | 91 | 1020.0 |
| 20260507083155 | 51 | 230 | 2.0 | 8.0 | 0.00 | 0.00 | 0.00 | 91 | 1020.1 |
| 20260507082551 | 51 | 261 | 3.0 | 8.0 | 0.00 | 0.00 | 0.00 | 91 | 1020.1 |
| 20260507082051 | 51 | 187 | 4.0 | 8.0 | 0.00 | 0.00 | 0.00 | 91 | 1020.0 |
| 20260507081552 | 51 | 284 | 2.0 | 8.0 | 0.00 | 0.00 | 0.00 | 91 | 1020.1 |
| 20260507081050 | 51 | 244 | 4.0 | 8.0 | 0.00 | 0.00 | 0.00 | 90 | 1020.1 |
| 20260507080550 | 51 | 237 | 3.0 | 7.0 | 0.00 | 0.00 | 0.00 | 90 | 1020.2 |
| 20260507080104 | 51 | 271 | 4.0 | 8.0 | 0.00 | 0.00 | 0.00 | 90 | 1020.1 |
| 20260507075549 | 51 | 240 | 4.0 | 8.0 | 0.00 | 0.00 | 0.00 | 90 | 1020.2 |
| 20260507075048 | 51 | 255 | 3.0 | 7.0 | 0.00 | 0.00 | 0.00 | 89 | 1020.3 |
| 20260507074549 | 51 | 264 | 4.0 | 8.0 | 0.00 | 0.00 | 0.00 | 89 | 1020.3 |
| 20260507074047 | 51 | 234 | 4.0 | 8.0 | 0.00 | 0.00 | 0.00 | 89 | 1020.3 |
| 20260507073547 | 51 | 237 | 3.0 | 8.0 | 0.00 | 0.00 | 0.00 | 89 | 1020.4 |
| 20260507073148 | 51 | 231 | 3.0 | 8.0 | 0.00 | 0.00 | 0.00 | 88 | 1020.4 |
| 20260507072548 | 51 | 212 | 2.0 | 8.0 | 0.00 | 0.00 | 0.00 | 88 | 1020.5 |
| 20260507072045 | 51 | 245 | 3.0 | 8.0 | 0.00 | 0.00 | 0.00 | 87 | 1020.5 |
| 20260507071545 | 51 | 237 | 4.0 | 8.0 | 0.00 | 0.00 | 0.00 | 87 | 1020.5 |
| 20260507071044 | 51 | 256 | 2.0 | 8.0 | 0.00 | 0.00 | 0.00 | 86 | 1020.5 |
| 20260507070544 | 51 | 268 | 3.0 | 7.0 | 0.00 | 0.00 | 0.00 | 86 | 1020.6 |
| 20260507070044 | 52 | 257 | 3.0 | 7.0 | 0.00 | 0.00 | 0.00 | 85 | 1020.6 |
| 20260507065546 | 52 | 237 | 3.0 | 7.0 | 0.00 | 0.00 | 0.00 | 85 | 1020.7 |
| 20260507065042 | 52 | 222 | 3.0 | 10.0 | 0.00 | 0.00 | 0.00 | 85 | 1020.6 |
| 20260507064544 | 52 | 271 | 5.0 | 10.0 | 0.00 | 0.00 | 0.00 | 85 | 1020.7 |
| 20260507064044 | 52 | 226 | 4.0 | 9.0 | 0.00 | 0.00 | 0.00 | 84 | 1020.7 |
| 20260507063542 | 52 | 253 | 5.0 | 13.0 | 0.00 | 0.00 | 0.00 | 85 | 1020.7 |
| 20260507063141 | 52 | 258 | 5.0 | 13.0 | 0.00 | 0.00 | 0.00 | 85 | 1020.7 |
| 20260507062542 | 52 | 250 | 5.0 | 11.0 | 0.00 | 0.00 | 0.00 | 85 | 1020.7 |
| 20260507062042 | 52 | 247 | 7.0 | 11.0 | 0.00 | 0.00 | 0.00 | 86 | 1020.8 |
| 20260507061542 | 52 | 264 | 6.0 | 12.0 | 0.00 | 0.00 | 0.00 | 86 | 1020.7 |
| 20260507061041 | 51 | 256 | 6.0 | 12.0 | 0.00 | 0.00 | 0.00 | 86 | 1020.7 |
| 20260507060541 | 51 | 287 | 6.0 | 10.0 | 0.00 | 0.00 | 0.00 | 85 | 1020.8 |
| 20260507060040 | 51 | 276 | 6.0 | 10.0 | 0.00 | 0.00 | 0.00 | 85 | 1020.7 |
| 20260507055539 | 51 | 232 | 6.0 | 9.0 | 0.00 | 0.00 | 0.00 | 84 | 1020.8 |
| 20260507055038 | 51 | 266 | 5.0 | 13.0 | 0.00 | 0.00 | 0.00 | 85 | 1020.8 |
| 20260507054539 | 51 | 219 | 5.0 | 13.0 | 0.00 | 0.00 | 0.00 | 85 | 1020.9 |
| 20260507054038 | 51 | 255 | 5.0 | 10.0 | 0.00 | 0.00 | 0.00 | 85 | 1020.9 |
| 20260507053538 | 51 | 261 | 5.0 | 10.0 | 0.00 | 0.00 | 0.00 | 85 | 1020.9 |
| 20260507053137 | 52 | 236 | 6.0 | 10.0 | 0.00 | 0.00 | 0.00 | 84 | 1020.9 |
| 20260507052536 | 52 | 237 | 7.0 | 12.0 | 0.00 | 0.00 | 0.00 | 84 | 1020.9 |
| 20260507052037 | 52 | 276 | 7.0 | 12.0 | 0.00 | 0.00 | 0.00 | 83 | 1020.8 |
| 20260507051534 | 52 | 268 | 7.0 | 12.0 | 0.00 | 0.00 | 0.00 | 83 | 1020.9 |
| 20260507051033 | 52 | 254 | 7.0 | 12.0 | 0.00 | 0.00 | 0.00 | 83 | 1020.8 |
| 20260507050533 | 53 | 251 | 6.0 | 12.0 | 0.00 | 0.00 | 0.00 | 82 | 1020.8 |
| 20260507050034 | 53 | 247 | 7.0 | 13.0 | 0.00 | 0.00 | 0.00 | 82 | 1020.9 |
| 20260507045532 | 53 | 263 | 8.0 | 12.0 | 0.00 | 0.00 | 0.00 | 81 | 1020.9 |
| 20260507045032 | 53 | 284 | 5.0 | 12.0 | 0.00 | 0.00 | 0.00 | 81 | 1021.1 |
| 20260507044531 | 52 | 234 | 5.0 | 12.0 | 0.00 | 0.00 | 0.00 | 81 | 1021.1 |
| 20260507044030 | 52 | 266 | 5.0 | 11.0 | 0.00 | 0.00 | 0.00 | 81 | 1021.1 |
| 20260507043528 | 53 | 212 | 5.0 | 9.0 | 0.00 | 0.00 | 0.00 | 81 | 1021.2 |
| 20260507043128 | 53 | 237 | 4.0 | 9.0 | 0.00 | 0.00 | 0.00 | 81 | 1021.3 |
| 20260507042527 | 53 | 270 | 3.0 | 8.0 | 0.00 | 0.00 | 0.00 | 81 | 1021.3 |
| 20260507042027 | 53 | 220 | 3.0 | 7.0 | 0.00 | 0.00 | 0.00 | 81 | 1021.3 |
| 20260507041526 | 53 | 232 | 3.0 | 7.0 | 0.00 | 0.00 | 0.00 | 81 | 1021.3 |
| 20260507041026 | 53 | 262 | 2.0 | 8.0 | 0.00 | 0.00 | 0.00 | 81 | 1021.4 |